Regional Weather Roundup
Issued by NWS

Home | Current Version | Previous Version | Graphics & Text | Print | Product List | Glossary On
Versions: 1 2 3 4 5 6 7 8 9 10 11 12 13 14 15 16 17 18 19 20 21 22 23 24 25 26 27 28 29 30 31 32 33 34 35 36 37 38 39 40 41 42 43 44 45 46 47 48 49 50
000
ASUS43 KMKX 041800
RWRWI

WISCONSIN REGIONAL WEATHER ROUNDUP
NATIONAL WEATHER SERVICE MILWAUKEE/SULLIVAN WI
100 PM CDT FRI SEP 04 2015

NOTE: "FAIR" INDICATES FEW OR NO CLOUDS BELOW 12,000 FEET WITH NO
SIGNIFICANT WEATHER AND/OR OBSTRUCTIONS TO VISIBILITY.

WIZ001-002-006>008-014>016-023>028-041900-
NORTHWEST WISCONSIN

CITY           SKY/WX    TMP DP  RH WIND       PRES   REMARKS
SUPERIOR ARPT  SUNNY     67  62  84 NE8       30.01R
ASHLAND        SUNNY     78  68  71 N10       30.01F HX  80
6HR MIN TEMP:  49; 6HR MAX TEMP:  79;

HAYWARD        SUNNY     81  67  62 VRB6      30.02R HX  83
6HR MIN TEMP:  67; 6HR MAX TEMP:  81;

SIREN          MOSUNNY   81  68  63 SE12      29.97F HX  84
CUMBERLAND     PTSUNNY   77  68  73 S9G16     30.00S
RICE LAKE      PTSUNNY   78  68  69 E9G17     30.02R HX  80
CHETEK         MOSUNNY   79  70  73 SE6       30.01S HX  82
LADYSMITH      SUNNY     81  65  59 S6        30.05R HX  82
EAU CLAIRE     NOT AVBL
MENOMONIE      SUNNY     83  70  62 SE10      29.98F HX  87
NEW RICHMOND   SUNNY     82  69  64 SE13      29.96F HX  85
OSCEOLA        SUNNY     82  71  68 SE12G20   29.97S HX  86
$$

WIZ003>005-009-010-017-018-041900-
NORTH CENTRAL WISCONSIN

CITY           SKY/WX    TMP DP  RH WIND       PRES   REMARKS
MANITOWISH WTR SUNNY     79  65  63 E9        30.08S HX  80
ARBOR VITAE    SUNNY     80  64  58 SE10      30.07F HX  81
WOODRUFF       SUNNY     80  64  58 SE10      30.07F HX  81
RHINELANDER    SUNNY     80  63  55 SE8       30.08S HX  81
6HR MIN TEMP:  61; 6HR MAX TEMP:  80;

EAGLE RIVER    SUNNY     79  60  51 E10       30.08S HX  80
LAND O LAKES   SUNNY     81  59  48 SE8       30.10S HX  81
PHILLIPS       SUNNY     78  65  65 SE8       30.04F HX  80
TOMAHAWK       MOSUNNY   79  65  62 SE3       30.06F HX  81
MEDFORD        MOSUNNY   74  67  76 SE8       30.06F
MERRILL        PTSUNNY   77  67  70 SE5       30.06F
$$

WIZ029-030-035-036-043>047-041900-
CENTRAL WISCONSIN

CITY           SKY/WX    TMP DP  RH WIND       PRES   REMARKS
WAUSAU         SUNNY     76  66  71 VRB5      30.04F
6HR MIN TEMP:  60; 6HR MAX TEMP:  78;

MOSINEE        PTSUNNY   75  68  78 VRB5      30.07S
MARSHFIELD     PTSUNNY   73  64  73 E7        30.06F
6HR MIN TEMP:  63; 6HR MAX TEMP:  74;

STEVENS POINT  CLOUDY    68  64  85 CALM      30.07S
WAUPACA        CLOUDY    72  68  87 CALM      30.06S
WAUTOMA        NOT AVBL
WISC RAPIDS    MOSUNNY   74  64  71 E7        30.06F
6HR MIN TEMP:  63; 6HR MAX TEMP:  74;

CAMP DOUGLAS   NOT AVBL
$$

WIZ011>013-019>022-031-037>040-048>050-041900-
NORTHEAST WISCONSIN

CITY           SKY/WX    TMP DP  RH WIND       PRES   REMARKS
ANTIGO         SUNNY     78  64  62 SE10      30.07F
SHAWANO        NOT AVBL
OCONTO         CLOUDY    74  67  78 NE6       30.05R
STURGEON BAY   PTSUNNY   73  64  73 NE3       30.07S
6HR MIN TEMP:  64; 6HR MAX TEMP:  73;

GREEN BAY      CLOUDY    76  66  71 VRB3      30.04F
6HR MIN TEMP:  66; 6HR MAX TEMP:  77;

MANITOWOC      NOT AVBL
APPLETON       CLOUDY    72  64  78 VRB3      30.04S
CLINTONVILLE   MOSUNNY   75  66  73 S3        30.05S
OSHKOSH        CLOUDY    71  65  81 E5        30.05S
6HR MIN TEMP:  68; 6HR MAX TEMP:  71;

$$

WIZ032>034-041-042-053>061-041900-
SOUTHWEST WISCONSIN

CITY           SKY/WX    TMP DP  RH WIND       PRES   REMARKS
LA CROSSE      SUNNY     86  71  60 SE8       29.98F HX  91
6HR MIN TEMP:  69; 6HR MAX TEMP:  86;

SPARTA         PTSUNNY   81  67  61 E8        30.02S HX  83
VIROQUA        SUNNY     83  71  67 SE5       30.02F HX  88
BOSCOBEL       SUNNY     87  71  58 S5        29.99F HX  93
6HR MIN TEMP:  68; 6HR MAX TEMP:  88;

PRAIRIE DU CHI SUNNY     85  69  57 SE6       29.98F HX  89
PLATTEVILLE    SUNNY     83  74  74 E5        30.02F HX  90
$$

WIZ056-057-062-063-064-067-068-041900-
SOUTH CENTRAL WISCONSIN

CITY           SKY/WX    TMP DP  RH WIND       PRES   REMARKS
REEDSBURG      MOSUNNY   79  69  71 CALM      30.03S HX  81
BARABOO/DELLS  MOSUNNY   76  65  67 SE3       30.04S
LONE ROCK      NOT AVBL
MINERAL POINT  SUNNY     82  72  69 S5        30.03F HX  87
MADISON        PTSUNNY   79  68  69 E5        30.03F HX  81
6HR MIN TEMP:  68; 6HR MAX TEMP:  80;

MIDDLETON      PTSUNNY   82  67  61 E3        30.04S HX  84
WATERTOWN      SUNNY     74  69  84 CALM      30.04F
MONROE         MOSUNNY   81  70  69 SE5       30.03F HX  84
JANESVILLE     MOSUNNY   82  70  65 CALM      30.01F HX  86
$$

WIZ051-052-058>065-066-070>072-041900-
SOUTHEAST WISCONSIN

CITY           SKY/WX    TMP DP  RH WIND       PRES   REMARKS
MILWAUKEE      MOSUNNY   76  66  71 VRB7      30.03F
6HR MIN TEMP:  65; 6HR MAX TEMP:  76;

WAUKESHA       MOSUNNY   75  64  69 E3        30.05F
MILWAUKEE/TIMM PTSUNNY   73  63  68 NW3       30.05F
RACINE         SUNNY     76  64  66 N8        30.05S
6HR MIN TEMP:  65; 6HR MAX TEMP:  78;

BURLINGTON     SUNNY     74  64  71 N3        30.04S
KENOSHA        MOSUNNY   78  66  66 VRB3      30.04F HX  80
6HR MIN TEMP:  65; 6HR MAX TEMP:  78;

FOND DU LAC    CLOUDY    73  66  78 VRB5      30.05S
6HR MIN TEMP:  67; 6HR MAX TEMP:  74;

SHEBOYGAN      CLOUDY    71  67  87 CALM      30.05S
6HR MIN TEMP:  67; 6HR MAX TEMP:  71;

WEST BEND      CLOUDY    70  63  78 CALM      30.05S
JUNEAU         MOSUNNY   74  66  75 SE3       30.06S
$$

LSZ147-162-041900-
LAKE SUPERIOR

STATION/POSITION TIME  TEMP    WIND        PRES    WAVE
                       AIR SEA DIR/SP/G            HT/PER
                 (UTC) (F)     (DEG/KT/KT) (MB)    (FT/S)
W MID LAKE BUOY  1650   61 57   70/ 10/ 12 1017.6R   1
DEVILS ISLAND    1700   62      60/  7/  8 1017.4R
PORT WING        1700   56      30/ 20/ 22 1015.9S
SAXON HARBOR     1700   67        CALM     1016.3
$$

LMZ867-665-643>646-041900-
LAKE MICHIGAN

STATION/POSITION TIME  TEMP    WIND        PRES    WAVE
                       AIR SEA DIR/SP/G            HT/PER
                 (UTC) (F)     (DEG/KT/KT) (MB)    (FT/S)
CHAMBERS ISLAND  1700   69     350/  8/  9 1017.6S
S GREEN BAY BUOY 1700   68 67   10/  8/ 10 1018.8
N MID LAKE BUOY  1650   68 66  130/  6/  8 1017.2R   2/ 3
NORTHPORT PIER   1700   75      70/  5/  6 1017.6R
SISTER BAY       1741   79     120/ 10/ 12   N/A
ALGOMA LAKESHORE 1714           70/ 11/ 11   N/A
KEWAUNEE LAKESHO 1700   66      30/  4/  6 1016.4S
SHEBOYGAN LAKESH 1700   63     360/  5/  6 1017.7F
PORT WASHINGTON  1700   65      50/  3/  4 1018.3S
ATWATER BUOY     1700   63     320/  2/  4 1018.9F
MILWAUKEE LAKESH 1710   68      30/  5/  6   N/A
S MID LAKE BUOY  1650   68 71  290/  6/  8 1016.9R
KENOSHA   LAKESH 1700   68     100/  5/  7 1016.9F
$$

TC  - TEMPERATURE IN CELSIUS
VSB - VISIBILITY IN STATUTE MILES
WCI - WIND CHILL INDEX
HX  - HEAT INDEX




USA.gov is the U.S. government's official web portal to all federal, state and local government web resources and services.